This is the latest recevied weather packets stored in our database for station/object WV6L-13. If no packets are shown the sender has not sent any weather packets the latest 10 day(s).
| Time | Temp. | Humidity | Pressure | Rain* | Wind** | Luminosity | Snow |
|---|---|---|---|---|---|---|---|
| 1777537496 | 10.56° C | 36% | 925.5 hPa | - | - | - | - |
| 1777537196 | 10.56° C | 36% | 925.5 hPa | - | - | - | - |
| 1777536895 | 11.11° C | 32% | 925.6 hPa | - | - | - | - |
| 1777536595 | 11.67° C | 32% | 925.6 hPa | - | - | - | - |
| 1777535996 | 12.22° C | 31% | 925.5 hPa | - | - | - | - |
| 1777535696 | 12.22° C | 31% | 925.4 hPa | - | - | - | - |
| 1777535395 | 12.78° C | 30% | 925.4 hPa | - | - | - | - |
| 1777535095 | 12.22° C | 31% | 925.6 hPa | - | - | - | - |
| 1777534796 | 12.22° C | 31% | 925.7 hPa | - | - | - | - |
| 1777534496 | 12.22° C | 31% | 925.7 hPa | - | - | - | - |
| 1777534197 | 12.78° C | 29% | 925.7 hPa | - | - | - | - |
| 1777533896 | 13.33° C | 29% | 925.7 hPa | - | - | - | - |
| 1777533596 | 13.33° C | 29% | 925.7 hPa | - | - | - | - |
| 1777533295 | 13.33° C | 30% | 925.7 hPa | - | - | - | - |
| 1777532996 | 13.33° C | 29% | 925.7 hPa | - | - | - | - |
| 1777532696 | 13.33° C | 29% | 925.8 hPa | - | - | - | - |
| 1777532396 | 13.33° C | 29% | 925.7 hPa | - | - | - | - |
| 1777532096 | 13.33° C | 29% | 925.7 hPa | - | - | - | - |
| 1777531796 | 13.33° C | 30% | 925.7 hPa | - | - | - | - |
| 1777531495 | 13.33° C | 28% | 925.6 hPa | - | - | - | - |
| 1777531195 | 13.33° C | 29% | 925.7 hPa | - | - | - | - |
| 1777530896 | 13.33° C | 29% | 925.5 hPa | - | - | - | - |
| 1777530595 | 13.33° C | 29% | 925.7 hPa | - | - | - | - |
| 1777530295 | 14.44° C | 27% | 925.5 hPa | - | - | - | - |
| 1777529996 | 15° C | 27% | 925.6 hPa | - | - | - | - |
* Rain since midnight (hover to see other rain measurements)
** Current wind speed in m/s (hover to see current wind gust speed)